Regional Weather Roundup
Issued by NWS Charleston, SC

Current Version | Previous Version | Graphics & Text | Print | Product List | Glossary On
Versions: 1 2 3 4 5 6 7 8 9 10 11 12 13 14 15 16 17 18 19 20 21 22 23 24 25 26 27 28 29 30 31 32 33 34 35 36 37 38 39 40 41 42 43 44 45 46 47 48 49 50
000 ASUS42 KCHS 290012 RWRCHS REGIONAL WEATHER ROUNDUP NATIONAL WEATHER SERVICE CHARLESTON SC 800 PM EDT THU MAY 28 2015 NOTE: "FAIR" INDICATES FEW OR NO CLOUDS BELOW 12,000 FEET WITH NO SIGNIFICANT WEATHER AND/OR OBSTRUCTIONS TO VISIBILITY. NOT ALL STATIONS ARE QUALITY CONTROLLED BY THE NATIONAL WEATHER SERVICE. USE DATA WITH CAUTION...ESPECIALLY DEWPOINT OBSERVATIONS. SCZ027-030-031-034>040-042>050-290100- ...SOUTHEAST SOUTH CAROLINA... CITY SKY/WX TMP DP RH WIND PRES REMARKS N CHARLESTON PTCLDY 76 62 62 SE10 30.18R 6HR MIN TEMP: 76; 6HR MAX TEMP: 85; WATERFRONT PAR N/A 78 66 66 E8 30.15R MOUNT PLEASANT LGT RAIN 75 64 69 CALM 30.18S JOHNS ISLAND PTCLDY 75 64 69 E5 30.19R PINOPOLIS N/A 84 64 51 SE5 30.11R MONCKS CORNER FAIR 77 61 57 SE5 30.18R HAZE SUMMERVILLE FAIR 79 63 57 SE3 30.18S BEAUFORT MCAS PTCLDY 78 65 63 SE6 30.18R 6HR MIN TEMP: 78; 6HR MAX TEMP: 87; BEAUFORT ARPT FAIR 77 64 65 E7 30.17S HAZE HILTON HEAD IS PTCLDY 77 64 65 E3 30.19R WALTERBORO CLEAR 75 59 57 SE5 30.18R ALLENDALE FAIR 81 66 61 SE7 30.16R ...SOUTHERN MIDLANDS AND PEE DEE... CITY SKY/WX TMP DP RH WIND PRES REMARKS GEORGETOWN NOT AVBL KINGSTREE NOT AVBL ORANGEBURG PTCLDY 80 65 59 SE7 30.18R 6HR MIN TEMP: 80; 6HR MAX TEMP: 87; BARNWELL MOCLDY 73 68 83 E5 30.17R AIKEN FAIR 81 61 50 CALM 30.20R MANNING FAIR 77 61 57 CALM 30.18R COLUMBIA PTCLDY 83 64 52 E8 30.15R 6HR MIN TEMP: 83; 6HR MAX TEMP: 90; SUMTER CLEAR 80 65 58 SE9 30.16R 6HR MIN TEMP: 80; 6HR MAX TEMP: 88; FLORENCE CLEAR 80 65 59 SE8 30.18R 6HR MIN TEMP: 80; 6HR MAX TEMP: 89; MYRTLE BEACH CLEAR 77 63 61 SE7 30.21R N MYRTLE BEACH CLEAR 76 63 64 SE6 30.19R 6HR MIN TEMP: 76; 6HR MAX TEMP: 80; $$ GAZ063-065-086>088-099>101-113>116-118-119-134>141-150-290100- ...SOUTHEAST GEORGIA... CITY SKY/WX TMP DP RH WIND PRES REMARKS SAVANNAH ARPT PTCLDY 77 62 59 E8 30.17R 6HR MIN TEMP: 77; 6HR MAX TEMP: 86; HUNTER AAF CLEAR 77 66 68 SE6 30.15R 6HR MIN TEMP: 77; 6HR MAX TEMP: 85; 6HR PCP: TRACE; FORT STEWART CLEAR 78 64 60 SE6 30.14S 6HR MIN TEMP: 78; 6HR MAX TEMP: 87; STATESBORO CLEAR 80 68 67 SE6 30.16R SYLVANIA CLEAR 81 68 65 SE6 30.17R CLAXTON FAIR 79 64 61 SE6 30.15S ...CSRA...CENTRAL AND FAR SOUTHEAST GEORGIA... CITY SKY/WX TMP DP RH WIND PRES REMARKS THOMSON MOCLDY 78 72 80 SE5 30.21R AUGUSTA-BUSH MOCLDY 79 69 71 E3 30.14R 6HR MIN TEMP: 79; 6HR MAX TEMP: 89; AUGUSTA-DANIEL PTCLDY 84 63 49 E5 30.16R SWAINSBORO FAIR 84 64 51 SE3 30.15R VIDALIA CLEAR 81 63 54 SE3 30.15R EASTMAN FAIR 83 65 53 CALM 30.15S HAZLEHURST FAIR 82 59 45 SE3 30.13R ALMA CLEAR 80 56 43 E7 30.14R 6HR MIN TEMP: 80; 6HR MAX TEMP: 88; WAYCROSS CLEAR 80 63 55 SE8 30.14R JESUP FAIR 81 64 57 SE3 30.16R BAXLEY FAIR 81 59 47 SE3 30.14S BRUNSWICK N/A 79 61 53 E7 30.16S SAINT SIMONS NOT AVBL $$ SCZ027-028-034-036>038-045-046-048>050-GAZ119-141-290100- ...LAKE AND SUPPLEMENTAL COASTAL OBSERVATIONS... STATION/POSITION TIME TEMP WIND PRES WAVE SWELL AIR SEA DIR/SP/G HT/PER HT/PER/DIR (UTC) (F) (DEG/KT/KT) (MB) (FT/S) (FT/S/D) UPR LAKE MARION NOT AVBL WINYAH BAY 2245 77 130/ 7 1021.0 LAKE MURRAY 2300 84 150/ 4/ 7 1020.0R ACE BASIN NERRS NOT AVBL FORT PULASKI 2300 77 80 80/ 9/ 11 1022.0R SAPELO ISLAND 2300 81 90/ 5 1021.0S $$ ANZ835-935-AMZ111-154-330-350-352-354-370-450-454-472-290100- ...C-MAN AND BUOY OBSERVATIONS... STATION/POSITION TIME TEMP WIND PRES WAVE SWELL AIR SEA DIR/SP/G HT/PER HT/PER/DIR (UTC) (F) (DEG/KT/KT) (MB) (FT/S) (FT/S/D) BUOY 41004 2350 76 79 90/ 8/ 12 1021.6R 3/ 8 3/ 8 BUOY 41008 2350 77 79 70/ 8/ 10 1021.6R 3/ 8 2/110/ 8 FOLLY BEACH CMAN 0000 76 100/ 8/ 9 1022.3R CAPERS NEARSHORE 2308 77 110/ 8/ 12 1022.0R FRIPP NEARSHORE 2300 77 130/ 10/ 14 1021.0R STATION/POSITION TIME TEMP WIND PRES WAVE SWELL AIR SEA DIR/SP/G HT/PER HT/PER/DIR (UTC) (F) (DEG/KT/KT) (MB) (FT/S) (FT/S/D) 5E ST. MARYS GA 2321 80 N/A 3/ 8 FRYING PAN BUOY 2350 77 77 100/ 8/ 10 1022.8R 3/ 9 3/130/ 9 BUOY 41025 2350 75 78 130/ 8/ 10 1023.1R 3/ 8 3/100/ 8 CAPE LOOKOUT NC 0000 74 130/ 7/ 7 1022.3S BUOY 41002 2350 74 74 70/ 14/ 16 1021.6R 6/ 9 5/100/ 9 BUOY 41010 2320 77 81 70/ 14/ 17 1019.7S ST AUGUSTINE FL 0000 77 80 100/ 10/ 11 1021.3R $$

USA.gov is the U.S. government's official web portal to all federal, state and local government web resources and services.